Find Kuiper-00159

NORAD ID: 67764 Int'l Des: 2026-030 Owner: KUIP Country: US Constellation: kuiper operational
LEOCIRCULAR

Live Position

Loading 3D Globe...

About Kuiper-00159

Description loading...

Upcoming Passes

Passes for default location (London). Set your location on the main map for personalized predictions.

Altitude History

Loading altitude history...

Two-Line Element Set

1 67764U 26030A 26109.47900948 .00046284 00000-0 12684-2 0 9997
2 67764 51.8875 22.2505 0005864 172.7198 187.3875 15.36829444 11366
Epoch: Apr 19, 2026 • Age: 9 hours

Current Status

Altitude 462.3 km
Velocity 7.63 km/s
Sub-Earth Point -11.68°S, 148.8°W
Launch Date Feb 12, 2026
Age 0.1 years
Type internet

Technical Details

Classification Payload
Mass 490.00 kg
Dry Mass 490.00 kg
Total Mass 490.00 kg
Length 1.80 m
Diameter 0.70 m
Span 5.00 m
Shape Box + 2 pan
Manufacturer KUIP
Bus Type Kuiper
Phase Status In Orbit
Owner/State KUIP/US

Most Searched